Погода Сырдарья

Погода Сырдарья : погода сейчас, прогноз погоды и архив. Всё, что Вы хотите узнать о погоде Сырдарья!

Поиск расширенной информации на нашем сайте:

Другие новости

Новости СМИ2

Главная страница сайта

Новости сайта

02.10.2013

Напоминаем, что на нашем новом сайте вы можете получить высокодетализированные прогнозы погоды по пунктам России, СНГ и мира (включающие важные для авиации метеовеличины, такие как направление и скорость ветра, видимость, явления погоды, количество и форма облачности, нижняя и верхняя граница облачности), а также ознакомиться с разнообразными материалами по авиационной метеорологии и подборкой полезных ссылок на эту тему.

Сайт Метеоцентр.Азия посвящён разработке технологий оптимизации авиаметеорологического обслуживания, включая проектирование и перспективное создание нескольких автоматизированных авиаметеорологических систем:
- система выпуска высокодетальных прогностических карт явлений погоды для нижнего воздушного пространства по России и ближнему зарубежью;
- система верификации прогнозов TAF (выпускаемых синоптиками официальных АМСГ РФ и ближнего зарубежья) и AUTOTAF (выпускаемых сайтом Метеоцентр.Азия) - выявление ошибок, онлайн-сопоставление с фактической погодой METAR, автоматическое внесение коррективов в прогнозы при резком отклонении фактической погоды от прогноза, подсчёт оправдываемости прогнозов по элементам и в целом;
- система обработки, анализа и отображения авиаметеорологической информации для применения провайдерами метеорологической информации.

Рекомендуем: Сообщество мамочки учатся курсы вождения.

Погода Сырдарья - сегодня

Время (UTC), дата Ветер
(°,м/с) 
Видим.   Явления Облачность Т
(°С)
Тd
(°С)
f(%) Тe
(°С)
Pmin
(гПа)
dP
(гПа)
Po
(мм)
O2
(г/м3)
Тmin Tmax R s Состояние
почвы
18 20.01.17 180 (Ю) 10 км    10/3 1000 м средняя, верхняя 
[Sc|Ac lent|Ci fib]
+3.7 -4.8 54 +3  1024  0.3  743  296    +11.8       
21 20.01.17 320 (СЗ) 10 км    10/10 600 м кучево-дожд. 
[Cb cap|Ns]
+3.6 -3.8 58 +4  1024.7  0.7  744  296           
00 21.01.17 110 (В) 10 км    10/10 600 м кучево-дожд. 
[Cb cap|Ns]
+3.3 -3.1 63 +1  1026.1  1.3  745  297           
03 21.01.17 160 (Ю) 10 км    10/10 600 м кучево-дожд. 
[Cb cap|Ns]
+2.1 -0.7 82 +3  1026.6  0.4  745  298           
06 21.01.17 320 (СЗ) 10 км  слаб. ливневой дождь  10/10 600 м кучево-дожд. 
[Cb cap]
+3.6 +1.8 88 +4  1027.2    746  296  +1.4         
09 21.01.17 110 (В) 10 км  слаб. ливневой дождь  10/10 600 м кучево-дожд. 
[Cb cap|Ns]
+3.7 +2.2 90 +5  1025.7  -1.5  745  296           
12 21.01.17 230 (ЮЗ) 10 км  слаб. дождь{ливн. осадки}  10/10 600 м 
[Frnb|Ns]
+3.8 +2.8 93 +5  1025.4  -0.2  745  295           
18 21.01.17 270 (З) 1000 м  дымка{дождь}  10/10 600 м 
[Frnb|Ns]
+3.1 +2.6 97 +4  1025.6  745  296    +5.2     
21 21.01.17 140 (ЮВ) 2000 м  дымка{дождь}  10/10 600 м 
[Frnb|Ns]
+2.1 +0.2 87 +3  1025.4  -0.3  744  298           
00 22.01.17 140 (ЮВ) 2000 м  дымка  10/10 600 м 
[Frnb|Ns]
+1.8 +0.5 91 +3  1025.2  -0.2  744  298           
03 22.01.17 050 (СВ) 1000 м  дымка  10/10 600 м 
[Sc]
+2.1 +0.8 91 +3  1024.4  -0.7  744  297      0.4     
06 22.01.17 тихо ()   2000 м  дымка  10/10 1000 м 
[Sc]
+2.9 +0.8 86 +3  1024  -0.3  743  296  +1.5    0.4     
09 22.01.17 140 (ЮВ) 10 км    10/6 1000 м средняя, верхняя 
[Sc|Ac lent|Ci fib]
+8.6 +0.6 57 +9  1020.6  -2.7  741  290           
12 22.01.17 360 (С) 10 км  в посл. час ливневой дождь  10/10 1000 м кучево-дожд. 
[Cb cap|Ns]
+6.7 +3.1 78 +8  1020.3  -0.4  741  291           
18 22.01.17 320 (СЗ) 10 км  слаб. дождь  10/10 600 м 
[Frnb|Ns]
+4.9 +3.5 91 +6  1022.2  0.5  742  293    +10.3  0.8     
21 22.01.17 230 (ЮЗ) 4000 м  дождь  10/10 600 м 
[Frnb|Ns]
+4.3 +3.6 95 +5  1023.3  0.9  743  294           
00 23.01.17 тихо ()   10 км  слаб. дождь  10/10 600 м 
[Frnb|Ns]
+3.8 +3.1 95 +4  1024.1  0.8  744  295           
03 23.01.17 290 (З) 10 км  {дождь}  10/10 600 м 
[Frnb|Ns]
+3.4 +2.9 97 +3  1026.3  745  296         
06 23.01.17 270 (З) 10 км  {дождь}  10/10 1000 м 
[Sc]
+3.1 +1.5 89 +3  1027.9  1.6  746  297  +3.6       
09 23.01.17 320 (СЗ) 10 км    10/10 600 м 
[Frnb|Ns]
+4 +1.2 82 +4  1027.1  -0.7  746  296           
12 23.01.17 340 (С) 10 км    10/10 600 м 
[Frnb|Ns]
+3.5 +0.9 83 +3  1027.4  0.2  746  297           
15 23.01.17 320 (СЗ) 10 км    10/10 1000 м 
[Sc]
+2.5 +0.1 84 +3  1027.9  0.4  746  298    +5.1       
18 23.01.17 320 (СЗ) 10 км    10/10 1000 м 
[Sc]
+1.8 -0.1 87 1029.3  1.2  747  299    +5.1       
21 23.01.17 320 (СЗ) 10 км    10/10 600 м 
[Frnb|Ns]
+0.6 -1.1 88 +1  1031.2  1.8  749  301           
00 24.01.17 020 (С) 10 км    10/10 600 м 
[Frnb|Ns]
+0.5 -1.5 86 +1  1032.9  1.6  750  302           
Время (UTC), дата Ветер
(°,м/с) 
Видим.   Явления Облачность Т
(°С)
Тd
(°С)
f(%) Тe
(°С)
Pmin
(гПа)
dP
(гПа)
Po
(мм)
O2
(г/м3)
Тmin Tmax R s Состояние
почвы

Для получения пояснительной информации подведите курсор к названию столбца.

ПОГОДА Сырдарья - архив

Всё, что Вы хотите узнать о погоде Сырдарья - удобно и подробно!

Выберите нужную дату (начиная с 1 января 2015* года) и нажмите кнопку "Найти".
Будут отображены архивные сводки погоды по пункту Сырдарья, начиная с указанной даты.


Отображать данные в формате CSV (для использования в таблицах Excel)


Внимание! Наш архив погоды предназначен исключительно для личного некоммерческого использования в познавательных целях. Если Вам необходимы официальные справки о состоянии погоды (для производственных, юридических, коммерческих и т.п. целей), обращайтесь в органы Росгидромета.

*Примечание: данная дата относится к архиву по метеостанциям СССР (Россия, СНГ, Балтия).
Архив по метеостанциям Зарубежной Европы и Азии (кроме Китая) хранится 10 дней, по другим регионам земного шара (Китай, Африка, Америка, Австралия, Океания) - 1 день.

Сырдарья - район местоположения метеостанции


Название, широта, долгота, высота метеостанции:
Сырдарья 40.8°ш. 68.7°д. 264 м над ур. моря [Узбекистан]

Дополнительная информация

В oтличие oт бoльшинства пoгoдных сайтoв мы публикуем пoдрoбную метеoинфoрмацию в детальнoм прoфессиoнальнoм фoрмате.

Характеристики температуры и влажнoсти вoздуха измеряются на высoте 2 м в тени вдали oт зданий и деревьев.
Скoрoсть ветра измеряется на высoте 10 м (на урoвне рoста челoвека скoрoсть ветра ниже в 1.5-2 раза). Если метеoстанция нахoдится в гoрoде или в лесу, тo скoрoсть ветра занижена на 2-4 м/с пo сравнению с oткрытым местoм. Скoрoсть ветра над акватoриями крупных рек и oзёр, а также на вершинах хoлмoв на 2-5 м/с выше, чем в oбычных услoвиях.
Атмoсфернoе давление в разных тoчках местнoсти мoжет значительнo oтличаться oт давления на метеoстанции, в зависимoсти oт услoвий рельефа (при пoдъёме на 10 м давление пoнижается примернo на 1 мм рт.ст.).